Back to catalog

CZ-2C DEB

AlivePO
NORAD 43534·DEBRIS·🇨🇳 China

Launched Jul 9, 2018 from Jiuquan Satellite Launch Center

Loading…

Next Passes (next 24 hours)

TLE

FreshSource: Space-Track

Epoch: Sep 14, 2026, 00:07 UTC

1 43534U 18056F   26257.00486920  .00023388  00000-0  67738-3 0  9998
2 43534  98.1126  96.4334 0011313  66.5686 293.6744 15.35525192447416

Track CZ-2C DEB in real time with AllMySat

Download on the App Store